Albion, NE

6:53 PM CDT on April 25, 2017 (GMT -0500)
Albion Municipal

Weather History for KBVN - January, 2013

Change the Weather History Date:

Friday, January 18, 2013

  Actual Average (KOFK) Record (KOFK)
Temperature  
Mean Temperature 46 °F -  
Max Temperature 62 °F 32 °F 61 °F (1951)
Min Temperature 30 °F 11 °F -21 °F (1940)
Degree Days  
Heating Degree Days 19    
Moisture  
Dew Point 23 °F    
Average Humidity 53    
Maximum Humidity 82    
Minimum Humidity 18    
Precipitation  
Precipitation 0.00 in - - ()
Sea Level Pressure  
Sea Level Pressure 29.97 in    
Wind  
Wind Speed 5 mph (WSW)    
Max Wind Speed 10 mph    
Max Gust Speed 18 mph    
Visibility 10 miles    
Events      
Averages and records for this station are not official NWS values.
T = Trace of Precipitation, MM = Missing Value Source: NWS Daily Summary

Daily Weather History Graph

Daily Weather History Graph

Search for Another Location

Airport or City:

Trip Planner

Search our weather history database for the weather conditions in past years. The results will help you decide how hot, cold, wet, or windy it might be!

Date:

Astronomy

Jan. 18, 2013 Rise Set
Actual Time 7:55 AM CST 5:30 PM CST
Civil Twilight 7:24 AM CST 6:01 PM CST
Nautical Twilight 6:50 AM CST 6:35 PM CST
Astronomical Twilight 6:17 AM CST 7:08 PM CST
Moon 11:27 AM CST (1/18) 12:29 AM CST (1/18)
Length of Visible Light 10h 36m
Length of Day
9h 35m
Waxing Crescent, 47% of the Moon is Illuminated
Jan 18
Waxing Crescent
Jan 18
First Quarter
Jan 26
Full
Feb 3
Last Quarter
Feb 10
New

Hourly Weather History & Observations

Time (CST) Temp. Windchill Dew Point Humidity Pressure Visibility Wind Dir Wind Speed Gust Speed Precip Events Conditions
12:15 AM 31.8 °F - 26.1 °F 79% 30.20 in 10.0 mi Calm Calm - N/A   Clear
12:35 AM 31.8 °F 27.3 °F 25.5 °F 78% 30.19 in 10.0 mi SSE 4.6 mph - N/A   Clear
12:55 AM 30.9 °F 26.2 °F 25.3 °F 80% 30.18 in 10.0 mi SSE 4.6 mph - N/A   Scattered Clouds
1:15 AM 30.4 °F 24.5 °F 25.2 °F 81% 30.18 in 10.0 mi SE 5.8 mph - N/A   Clear
1:35 AM 30.9 °F 25.2 °F 25.3 °F 80% 30.16 in 10.0 mi SE 5.8 mph - N/A   Clear
1:55 AM 30.4 °F 23.6 °F 25.3 °F 82% 30.15 in 10.0 mi SE 6.9 mph - N/A   Clear
2:15 AM 30.2 °F 23.4 °F 25.2 °F 82% 30.14 in 10.0 mi SSE 6.9 mph - N/A   Clear
2:35 AM 30.9 °F 25.2 °F 25.3 °F 80% 30.12 in 10.0 mi SE 5.8 mph - N/A   Clear
2:55 AM 32.0 °F 26.4 °F 25.3 °F 76% 30.11 in 10.0 mi South 5.8 mph - N/A   Clear
3:15 AM 35.2 °F 27.6 °F 26.2 °F 70% 30.10 in 10.0 mi SSW 10.4 mph - N/A   Clear
3:35 AM 34.7 °F 28.8 °F 25.7 °F 70% 30.09 in 10.0 mi SSW 6.9 mph - N/A   Clear
3:55 AM 34.3 °F - 25.3 °F 70% 30.08 in 10.0 mi Calm Calm - N/A   Clear
4:15 AM 33.3 °F 27.9 °F 24.8 °F 71% 30.06 in 10.0 mi South 5.8 mph - N/A   Clear
4:35 AM 32.4 °F 26.9 °F 25.0 °F 74% 30.04 in 10.0 mi South 5.8 mph - N/A   Clear
4:55 AM 33.8 °F 29.6 °F 25.2 °F 71% 30.03 in 10.0 mi South 4.6 mph - N/A   Clear
5:15 AM 33.6 °F 27.5 °F 25.3 °F 72% 30.03 in 10.0 mi South 6.9 mph - N/A   Clear
5:35 AM 32.7 °F 26.4 °F 25.3 °F 74% 30.01 in 10.0 mi South 6.9 mph - N/A   Clear
5:55 AM 32.5 °F 29.3 °F 24.8 °F 73% 30.01 in 10.0 mi SSE 3.5 mph - N/A   Clear
6:15 AM 33.3 °F - 25.0 °F 72% 30.00 in 10.0 mi Calm Calm - N/A   Clear
6:35 AM 33.1 °F - 24.6 °F 71% 30.00 in 10.0 mi Calm Calm - N/A   Clear
6:55 AM 32.4 °F 29.1 °F 24.8 °F 74% 30.01 in 10.0 mi WNW 3.5 mph - N/A   Clear
7:15 AM 32.0 °F 27.5 °F 24.1 °F 73% 30.00 in 10.0 mi SSW 4.6 mph - N/A   Clear
7:35 AM 32.0 °F 28.7 °F 24.1 °F 73% 29.99 in 10.0 mi South 3.5 mph - N/A   Clear
7:55 AM 32.9 °F 24.7 °F 24.4 °F 71% 29.98 in 10.0 mi WSW 10.4 mph 18.4 mph N/A   Clear
8:15 AM 32.5 °F 27.1 °F 24.3 °F 72% 29.98 in 10.0 mi WSW 5.8 mph - N/A   Clear
8:35 AM 32.7 °F 29.6 °F 23.9 °F 70% 29.98 in 10.0 mi West 3.5 mph - N/A   Clear
8:55 AM 33.8 °F 29.6 °F 24.6 °F 69% 29.99 in 10.0 mi WSW 4.6 mph - N/A   Clear
9:15 AM 35.1 °F 29.3 °F 25.2 °F 67% 29.98 in 10.0 mi WSW 6.9 mph - N/A   Clear
9:35 AM 35.4 °F 29.7 °F 25.0 °F 66% 29.98 in 10.0 mi West 6.9 mph - N/A   Clear
10:15 AM 40.1 °F 35.3 °F 25.3 °F 56% 29.98 in 10.0 mi WSW 6.9 mph - N/A   Clear
10:35 AM 41.4 °F 35.7 °F 25.2 °F 53% 29.98 in 10.0 mi West 9.2 mph - N/A   Clear
10:55 AM 43.9 °F 39.3 °F 25.3 °F 48% 29.97 in 10.0 mi West 8.1 mph - N/A   Clear
11:15 AM 46.6 °F - 24.3 °F 42% 29.97 in 10.0 mi West 9.2 mph - N/A   Clear
11:35 AM 48.2 °F - 23.2 °F 37% 29.96 in 10.0 mi WNW 9.2 mph - N/A   Clear
11:55 AM 50.0 °F - 23.2 °F 35% 29.95 in 10.0 mi West 9.2 mph - N/A   Clear
12:15 PM 52.0 °F - 22.8 °F 32% 29.93 in 10.0 mi West 8.1 mph - N/A   Clear
12:35 PM 54.5 °F - 22.3 °F 29% 29.92 in 10.0 mi West 9.2 mph - N/A   Clear
12:55 PM 55.9 °F - 21.7 °F 27% 29.92 in 10.0 mi West 8.1 mph - N/A   Clear
1:15 PM 57.2 °F - 21.6 °F 25% 29.91 in 10.0 mi West 5.8 mph - N/A   Clear
1:35 PM 58.5 °F - 21.4 °F 24% 29.90 in 10.0 mi West 6.9 mph - N/A   Clear
1:55 PM 59.9 °F - 20.8 °F 22% 29.89 in 10.0 mi WSW 10.4 mph - N/A   Clear
2:15 PM 61.3 °F - 20.3 °F 21% 29.89 in 10.0 mi West 8.1 mph - N/A   Clear
2:35 PM 62.4 °F - 18.9 °F 19% 29.89 in 10.0 mi West 9.2 mph - N/A   Clear
2:55 PM 62.6 °F - 19.4 °F 19% 29.89 in 10.0 mi West 8.1 mph - N/A   Clear
3:15 PM 62.6 °F - 18.7 °F 18% 29.88 in 10.0 mi West 9.2 mph - N/A   Clear
3:35 PM 62.6 °F - 19.2 °F 19% 29.88 in 10.0 mi West 6.9 mph - N/A   Clear
3:55 PM 61.7 °F - 19.9 °F 20% 29.89 in 10.0 mi West 6.9 mph - N/A   Clear
4:15 PM 61.0 °F - 20.5 °F 21% 29.89 in 10.0 mi West 5.8 mph - N/A   Clear
4:35 PM 59.9 °F - 20.1 °F 22% 29.89 in 10.0 mi West 3.5 mph - N/A   Clear
4:55 PM 58.5 °F - 20.1 °F 23% 29.89 in 10.0 mi West 4.6 mph - N/A   Clear
5:15 PM 54.1 °F - 21.0 °F 27% 29.89 in 10.0 mi WSW 4.6 mph - N/A   Clear
5:35 PM 51.6 °F - 21.4 °F 31% 29.90 in 10.0 mi WSW 3.5 mph - N/A   Clear
5:55 PM 46.8 °F - 21.4 °F 37% 29.90 in 10.0 mi Calm Calm - N/A   Scattered Clouds
6:15 PM 48.4 °F - 20.8 °F 34% 29.90 in 10.0 mi WNW 3.5 mph - N/A   Mostly Cloudy
6:35 PM 44.2 °F 42.7 °F 21.7 °F 41% 29.91 in 10.0 mi WNW 3.5 mph - N/A   Mostly Cloudy
6:55 PM 43.0 °F 41.3 °F 21.2 °F 42% 29.91 in 10.0 mi West 3.5 mph - N/A   Scattered Clouds
7:15 PM 44.6 °F - 20.8 °F 39% 29.91 in 10.0 mi Calm Calm - N/A   Clear
7:35 PM 40.5 °F 38.4 °F 21.2 °F 46% 29.91 in 10.0 mi SE 3.5 mph - N/A   Scattered Clouds
7:55 PM 38.8 °F - 21.9 °F 51% 29.91 in 10.0 mi Calm Calm - N/A   Scattered Clouds
8:15 PM 39.6 °F 37.4 °F 21.6 °F 49% 29.91 in 10.0 mi SW 3.5 mph - N/A   Scattered Clouds
8:35 PM 36.0 °F - 21.9 °F 57% 29.91 in 10.0 mi Calm Calm - N/A   Scattered Clouds
8:55 PM 39.4 °F - 21.7 °F 49% 29.90 in 10.0 mi Calm Calm - N/A   Clear
9:15 PM 40.3 °F - 21.2 °F 47% 29.90 in 10.0 mi Calm Calm - N/A   Scattered Clouds
9:35 PM 37.4 °F 34.9 °F 21.9 °F 54% 29.90 in 10.0 mi NNW 3.5 mph - N/A   Clear
9:55 PM 39.0 °F 36.8 °F 22.1 °F 51% 29.89 in 10.0 mi NW 3.5 mph - N/A   Clear
10:15 PM 37.0 °F - 22.3 °F 55% 29.89 in 10.0 mi Calm Calm - N/A   Clear
10:35 PM 34.5 °F - 22.8 °F 62% 29.89 in 10.0 mi Calm Calm - N/A   Scattered Clouds
10:55 PM 40.3 °F - 21.9 °F 48% 29.87 in 10.0 mi Calm Calm - N/A   Scattered Clouds
11:15 PM 34.7 °F - 22.1 °F 60% 29.88 in 10.0 mi Calm Calm - N/A   Clear
11:35 PM 38.7 °F - 21.9 °F 51% 29.87 in 10.0 mi Calm Calm - N/A   Scattered Clouds
11:55 PM 37.6 °F 35.1 °F 21.6 °F 52% 29.86 in 10.0 mi West 3.5 mph - N/A   Scattered Clouds